Location: Cranford
(40.6578°N, 74.3024°W)
Time: 10:04:32
(UTC+00:00)

STARLINK-5162 - Pass Details

Date: 08 December 2022
Orbit: 539 x 540 km, 53.2° (Epoch: 02 February)

Event Time Altitude Azimuth Distance (km) Brightness Sun altitude
Rises 21:52:54 0° 233° (SW) 2,697 ? -4.7°
Reaches altitude 10° 21:55:07 10° 235° (SW) 1,809 ? -5.1°
Maximum altitude 21:59:14 77° 322° (NW) 566 ? -5.8°
Drops below altitude 10° 22:03:23 10° 48° (NE) 1,824 ? -6.5°
Enters shadow 22:03:57 - 49° (NE) 2,048 ? -6.6°
